Location: Antoign�
(47.0844°N, 0.1131°W)
Time: 03:19:16
(UTC+00:00)

Lacrosse 4 Rocket - Pass Details

Date: 03 March 2021
Orbit: 537 x 620 km, 68.0° (Epoch: 17 April)

Event Time Altitude Azimuth Distance (km) Brightness Sun altitude
Rises 20:47:51 0° 226° (SW) 2,828 5.2 -30.5°
Reaches altitude 10° 20:50:08 10° 233° (SW) 1,943 4.4 -30.8°
Enters shadow 20:50:56 15° 236° (WSW) 1,646 4.0 -31.0°
